DLH1MK EDDF-EDLW

Flight info

Callsign DLH1MK
Flight time 0h 27m
Altitude 16000
Route MARUN8M/25C MARUN Y152 ARPEG Z850 ADEMI ADEMI2A
Aircraft A20N/M-SDE2E3FGHIRWXY/LB1

Departure

Time 2026-05-04 13:50
Airport Frankfurt Main Airport (EDDF)

Arrival

Time 2026-05-04 14:17
Airport Dortmund Airport (EDLW)
Time Latitude Longitude Altitude Speed Heading
2026-05-04 13:31 50.04800 8.58423 374 ft 0 kts 158°
2026-05-04 13:42 50.04803 8.58421 374 ft 2 kts 158°
2026-05-04 13:42 50.04817 8.58413 374 ft 2 kts 158°
2026-05-04 13:42 50.04831 8.58404 375 ft 2 kts 165°
2026-05-04 13:43 50.04846 8.58403 375 ft 2 kts 193°
2026-05-04 13:43 50.04852 8.58406 375 ft 0 kts 202°
2026-05-04 13:44 50.04853 8.58406 373 ft 0 kts 202°
2026-05-04 13:45 50.04865 8.58402 373 ft 0 kts 70°
2026-05-04 13:46 50.04865 8.58403 373 ft 0 kts 70°
2026-05-04 13:46 50.04870 8.58422 374 ft 3 kts 70°
2026-05-04 13:47 50.04882 8.58472 374 ft 8 kts 70°
2026-05-04 13:47 50.04909 8.58593 375 ft 14 kts 75°
2026-05-04 13:47 50.04856 8.58703 375 ft 9 kts 161°
2026-05-04 13:47 50.04854 8.58704 375 ft 0 kts 161°
2026-05-04 13:48 50.04851 8.58706 375 ft 1 kts 161°
2026-05-04 13:48 50.04828 8.58718 375 ft 6 kts 160°
2026-05-04 13:48 50.04765 8.58755 375 ft 12 kts 160°
2026-05-04 13:48 50.04673 8.58764 374 ft 14 kts 186°
2026-05-04 13:49 50.04579 8.58710 374 ft 15 kts 214°
2026-05-04 13:49 50.04494 8.58602 373 ft 15 kts 233°
2026-05-04 13:49 50.04475 8.58541 373 ft 0 kts 250°
2026-05-04 13:49 50.04461 8.58482 372 ft 29 kts 250°
2026-05-04 13:50 50.04295 8.57788 367 ft 105 kts 250°
2026-05-04 13:50 50.03968 8.56401 371 ft 163 kts 248°
2026-05-04 13:50 50.03574 8.54716 949 ft 167 kts 249°
2026-05-04 13:50 50.03185 8.53056 1676 ft 168 kts 249°
2026-05-04 13:51 50.02782 8.51365 2412 ft 169 kts 247°
2026-05-04 13:51 50.02105 8.49860 2952 ft 181 kts 217°
2026-05-04 13:51 50.00903 8.49097 3471 ft 196 kts 197°
2026-05-04 13:51 49.99547 8.48539 3971 ft 214 kts 195°
2026-05-04 13:52 49.96531 8.47276 5404 ft 233 kts 197°
2026-05-04 13:52 49.94953 8.46569 6183 ft 240 kts 197°
2026-05-04 13:52 49.93341 8.45814 6870 ft 250 kts 201°
2026-05-04 13:53 49.91895 8.44362 7719 ft 254 kts 229°
2026-05-04 13:53 49.91082 8.41957 8425 ft 257 kts 256°
2026-05-04 13:53 49.91083 8.39217 8843 ft 263 kts 283°
2026-05-04 13:54 49.93460 8.34932 8977 ft 288 kts 334°
2026-05-04 13:54 49.95344 8.33762 8977 ft 294 kts 337°
2026-05-04 13:54 49.99143 8.31400 8964 ft 295 kts 336°
2026-05-04 13:55 50.01041 8.30172 8969 ft 294 kts 335°
2026-05-04 13:55 50.04901 8.28241 8968 ft 299 kts 358°
2026-05-04 13:55 50.06976 8.28760 9391 ft 307 kts 18°
2026-05-04 13:56 50.08982 8.29821 10313 ft 306 kts 19°
2026-05-04 13:56 50.11016 8.30935 10910 ft 318 kts 19°
2026-05-04 13:56 50.15419 8.33301 11675 ft 354 kts 18°
2026-05-04 13:57 50.17782 8.34551 11985 ft 372 kts 18°
2026-05-04 13:57 50.20303 8.35878 12293 ft 389 kts 18°
2026-05-04 13:58 50.28222 8.40051 14116 ft 408 kts 18°
2026-05-04 13:58 50.33615 8.42954 15393 ft 416 kts 18°
2026-05-04 13:58 50.36355 8.44453 15825 ft 419 kts 18°
2026-05-04 13:59 50.39106 8.45960 15955 ft 420 kts 18°
2026-05-04 13:59 50.41868 8.47472 15959 ft 427 kts 18°
2026-05-04 13:59 50.47642 8.50602 15955 ft 444 kts 17°
2026-05-04 14:00 50.50555 8.52035 15953 ft 444 kts 15°
2026-05-04 14:00 50.56485 8.54856 15958 ft 444 kts 15°
2026-05-04 14:00 50.59445 8.56266 15952 ft 444 kts 15°
2026-05-04 14:01 50.62398 8.57679 15958 ft 444 kts 15°
2026-05-04 14:01 50.65306 8.59077 15962 ft 444 kts 15°
2026-05-04 14:01 50.71226 8.61930 15959 ft 443 kts 15°
2026-05-04 14:02 50.74181 8.63356 15955 ft 443 kts 15°
2026-05-04 14:02 50.77107 8.64754 15949 ft 443 kts 14°
2026-05-04 14:02 50.80130 8.65361 15938 ft 439 kts 355°
2026-05-04 14:02 50.83062 8.64225 15948 ft 434 kts 333°
2026-05-04 14:03 50.85510 8.61532 15784 ft 426 kts 313°
2026-05-04 14:03 50.87370 8.58006 15361 ft 413 kts 306°
2026-05-04 14:03 50.89105 8.54519 14929 ft 404 kts 306°
2026-05-04 14:03 50.90863 8.51060 14478 ft 396 kts 307°
2026-05-04 14:04 50.94289 8.44515 13586 ft 381 kts 308°
2026-05-04 14:04 50.95983 8.41321 13140 ft 375 kts 308°
2026-05-04 14:04 50.97642 8.38202 12707 ft 372 kts 308°
2026-05-04 14:05 51.01028 8.32090 11822 ft 368 kts 314°
2026-05-04 14:05 51.02994 8.29540 11379 ft 365 kts 323°
2026-05-04 14:05 51.05135 8.27449 11024 ft 358 kts 328°
2026-05-04 14:06 51.07253 8.25586 10957 ft 342 kts 329°
2026-05-04 14:06 51.09296 8.23812 10959 ft 324 kts 329°
2026-05-04 14:06 51.11257 8.22090 10960 ft 321 kts 328°
2026-05-04 14:06 51.13224 8.20344 10746 ft 321 kts 328°
2026-05-04 14:07 51.15145 8.18634 10417 ft 317 kts 328°
2026-05-04 14:07 51.17061 8.16927 10089 ft 312 kts 328°
2026-05-04 14:07 51.18929 8.15258 9771 ft 307 kts 328°
2026-05-04 14:07 51.20768 8.13615 9452 ft 302 kts 328°
2026-05-04 14:08 51.22579 8.11994 9132 ft 298 kts 328°
2026-05-04 14:08 51.24377 8.10384 8813 ft 294 kts 328°
2026-05-04 14:08 51.26134 8.08810 8493 ft 290 kts 329°
2026-05-04 14:08 51.27889 8.07236 8166 ft 287 kts 329°
2026-05-04 14:09 51.31321 8.04153 7516 ft 280 kts 329°
2026-05-04 14:09 51.33013 8.02631 7190 ft 278 kts 328°
2026-05-04 14:10 51.36366 7.99610 6537 ft 276 kts 329°
2026-05-04 14:10 51.38023 7.98115 6218 ft 275 kts 329°
2026-05-04 14:10 51.39674 7.96622 5896 ft 274 kts 329°
2026-05-04 14:10 51.41330 7.95126 5567 ft 272 kts 329°
2026-05-04 14:11 51.42956 7.93663 5243 ft 269 kts 329°
2026-05-04 14:11 51.46180 7.90765 4594 ft 261 kts 329°
2026-05-04 14:11 51.47758 7.89407 4266 ft 254 kts 333°
2026-05-04 14:12 51.49362 7.88344 3969 ft 244 kts 340°
2026-05-04 14:12 51.50943 7.87538 3768 ft 237 kts 342°
2026-05-04 14:12 51.53996 7.85998 3331 ft 225 kts 341°
2026-05-04 14:13 51.55475 7.85231 3082 ft 220 kts 342°
2026-05-04 14:13 51.56847 7.84243 2791 ft 212 kts 327°
2026-05-04 14:13 51.57743 7.82564 2669 ft 188 kts 289°
2026-05-04 14:13 51.57835 7.80652 2748 ft 168 kts 267°
2026-05-04 14:14 51.57643 7.78856 2643 ft 153 kts 256°
2026-05-04 14:14 51.56898 7.75842 2275 ft 143 kts 246°
2026-05-04 14:14 51.56464 7.74404 2082 ft 142 kts 243°
2026-05-04 14:15 51.55503 7.71669 1718 ft 140 kts 242°
2026-05-04 14:15 51.54549 7.68945 1347 ft 141 kts 242°
2026-05-04 14:16 51.53584 7.66199 985 ft 141 kts 242°
2026-05-04 14:16 51.53104 7.64840 802 ft 140 kts 241°
2026-05-04 14:17 51.52149 7.62115 434 ft 140 kts 241°
2026-05-04 14:17 51.51781 7.61060 429 ft 72 kts 242°
2026-05-04 14:17 51.51451 7.60247 429 ft 19 kts 174°
2026-05-04 14:18 51.51362 7.60372 429 ft 17 kts 84°
2026-05-04 14:18 51.51473 7.60715 429 ft 17 kts 61°
2026-05-04 14:19 51.51588 7.61060 429 ft 16 kts 66°
2026-05-04 14:19 51.51612 7.61189 429 ft 7 kts 133°
2026-05-04 14:19 51.51562 7.61235 429 ft 4 kts 150°
2026-05-04 14:19 51.51561 7.61237 429 ft 0 kts 150°